TimeMDT,TemperatureF,Dew PointF,Humidity,Sea Level PressureIn,VisibilityMPH,Wind Direction,Wind SpeedMPH,Gust SpeedMPH,PrecipitationIn,Events,Conditions,WindDirDegrees,DateUTC
12:53 AM,48.9,30.9,50,29.72,10.0,NNW,10.4,-,N/A,,Scattered Clouds,330,2013-05-23 06:53:00
1:53 AM,46.0,32.0,58,29.72,10.0,NNW,5.8,-,N/A,,Partly Cloudy,340,2013-05-23 07:53:00
2:53 AM,46.0,32.0,58,29.75,10.0,North,6.9,-,N/A,,Partly Cloudy,10,2013-05-23 08:53:00
3:53 AM,45.0,30.9,58,29.78,10.0,North,10.4,-,N/A,,Partly Cloudy,350,2013-05-23 09:53:00
4:53 AM,44.1,30.9,60,29.78,10.0,NW,3.5,-,N/A,,Partly Cloudy,320,2013-05-23 10:53:00
5:53 AM,43.0,33.1,68,29.78,10.0,Calm,Calm,-,N/A,,Scattered Clouds,0,2013-05-23 11:53:00
6:53 AM,44.1,33.1,65,29.80,10.0,Calm,Calm,-,N/A,,Partly Cloudy,0,2013-05-23 12:53:00
7:53 AM,48.9,34.0,56,29.79,10.0,SE,5.8,-,N/A,,Scattered Clouds,130,2013-05-23 13:53:00
8:53 AM,54.0,30.9,41,29.78,10.0,Calm,Calm,-,N/A,,Partly Cloudy,0,2013-05-23 14:53:00
9:53 AM,55.9,33.1,42,29.77,10.0,Variable,4.6,-,N/A,,Partly Cloudy,0,2013-05-23 15:53:00
10:53 AM,57.9,32.0,37,29.75,10.0,South,5.8,-,N/A,,Partly Cloudy,180,2013-05-23 16:53:00
11:53 AM,61.0,32.0,34,29.73,10.0,Variable,4.6,-,N/A,,Partly Cloudy,0,2013-05-23 17:53:00
12:18 PM,69.8,64.4,83,29.90,4.0,South,10.4,-,N/A,Rain-Thunderstorm,Light Thunderstorms and Rain,190,2013-05-23 18:18:00
12:53 PM,64.0,34.0,33,29.71,10.0,North,5.8,-,N/A,,Scattered Clouds,350,2013-05-23 18:53:00
1:53 PM,66.0,35.1,32,29.70,10.0,Variable,6.9,-,N/A,,Scattered Clouds,0,2013-05-23 19:53:00
2:53 PM,68.0,35.1,30,29.68,10.0,Variable,4.6,-,N/A,,Scattered Clouds,0,2013-05-23 20:53:00
3:53 PM,69.1,37.9,32,29.66,10.0,North,15.0,-,N/A,,Scattered Clouds,350,2013-05-23 21:53:00
4:53 PM,71.1,36.0,28,29.65,10.0,North,12.7,-,N/A,,Partly Cloudy,10,2013-05-23 22:53:00
5:53 PM,70.0,34.0,27,29.62,10.0,NNW,15.0,23.0,N/A,,Partly Cloudy,330,2013-05-23 23:53:00
6:53 PM,69.1,36.0,30,29.63,10.0,NW,16.1,-,N/A,,Partly Cloudy,320,2013-05-24 00:53:00
7:53 PM,66.0,32.0,28,29.68,10.0,WNW,21.9,29.9,N/A,,Scattered Clouds,300,2013-05-24 01:53:00
8:53 PM,61.0,37.0,41,29.76,10.0,WNW,18.4,29.9,N/A,,Scattered Clouds,300,2013-05-24 02:53:00
9:53 PM,59.0,37.0,44,29.82,10.0,North,16.1,21.9,N/A,,Mostly Cloudy,350,2013-05-24 03:53:00
10:53 PM,55.9,36.0,47,29.87,10.0,NNW,6.9,-,N/A,,Partly Cloudy,340,2013-05-24 04:53:00
11:53 PM,53.1,37.0,55,29.90,10.0,NNW,3.5,-,N/A,,Partly Cloudy,340,2013-05-24 05:53:00